Bangor, ME

9:41 AM EDT on August 19, 2017 (GMT -0400)
Bangor International

Weather History for KBGR - July, 2012

Change the Weather History Date:

Thursday, July 12, 2012

  Actual Average Record
Temperature  
Mean Temperature 71 °F 69 °F  
Max Temperature 85 °F 79 °F 96 °F (1935)
Min Temperature 57 °F 58 °F 42 °F (1945)
Degree Days  
Heating Degree Days 0 1  
Month to date heating degree days 0 12  
Since 1 June heating degree days 121 119  
Since 1 July heating degree days 0 12  
Cooling Degree Days 6 4  
Month to date cooling degree days 65 46  
Year to date cooling degree days 125 104  
Since 1 June cooling degree days 112 98  
Growing Degree Days 20 (Base 50)    
Moisture  
Dew Point 61 °F    
Average Humidity 78    
Maximum Humidity 100    
Minimum Humidity 55    
Precipitation  
Precipitation 0.00 in 0.11 in 1.28 in (1976)
Month to date precipitation 0.20 1.27  
Year to date precipitation 21.31 21.08  
Snow  
Snow 0.00 in 0.00 in 0.00 in (2002)
Month to date snowfall 0.0 0.0  
Since 1 June snowfall 0.0 0.0  
Since 1 July snowfall 0.0 0.0  
Snow Depth 0.00 in    
Sea Level Pressure  
Sea Level Pressure 30.12 in    
Wind  
Wind Speed 5 mph (South)    
Max Wind Speed 20 mph    
Max Gust Speed 25 mph    
Visibility 9 miles    
Events      
T = Trace of Precipitation, MM = Missing Value Source: NWS Daily Summary

Daily Weather History Graph

Daily Weather History Graph

Search for Another Location

Airport or City:

Trip Planner

Search our weather history database for the weather conditions in past years. The results will help you decide how hot, cold, wet, or windy it might be!

Date:

Astronomy

Jul. 12, 2012 Rise Set
Actual Time 5:01 AM EDT 8:20 PM EDT
Civil Twilight 4:25 AM EDT 8:56 PM EDT
Nautical Twilight 3:38 AM EDT 9:42 PM EDT
Astronomical Twilight 2:39 AM EDT 10:41 PM EDT
Moon 12:09 AM EDT (7/12) 2:45 PM EDT (7/12)
Length of Visible Light 16h 30m
Length of Day
15h 18m
Waning Crescent, 35% of the Moon is Illuminated
Jul 12
Waning Crescent
Jul 19
New
Jul 26
First Quarter
Aug 1
Full
Aug 9
Last Quarter

Hourly Weather History & Observations

Time (EDT) Temp. Heat Index Dew Point Humidity Pressure Visibility Wind Dir Wind Speed Gust Speed Precip Events Conditions
12:53 AM 61.0 °F - 55.0 °F 81% 30.17 in 10.0 mi Calm Calm - N/A   Clear
1:53 AM 57.9 °F - 54.0 °F 87% 30.16 in 10.0 mi Calm Calm - N/A   Clear
2:53 AM 62.1 °F - 57.0 °F 84% 30.15 in 10.0 mi South 4.6 mph - N/A   Clear
3:53 AM 61.0 °F - 57.9 °F 90% 30.15 in 10.0 mi South 4.6 mph - N/A   Partly Cloudy
4:53 AM 60.1 °F - 57.9 °F 93% 30.15 in 9.0 mi Calm Calm - N/A   Partly Cloudy
5:53 AM 61.0 °F - 60.1 °F 97% 30.15 in 4.0 mi South 4.6 mph - N/A   Partly Cloudy
6:00 AM 62.6 °F - 60.8 °F 94% 30.16 in 4.0 mi SSW 5.8 mph - N/A   Mostly Cloudy
6:07 AM 62.6 °F - 60.8 °F 94% 30.17 in 4.0 mi South 4.6 mph - N/A   Scattered Clouds
6:53 AM 64.0 °F - 62.1 °F 93% 30.16 in 10.0 mi South 5.8 mph - N/A   Clear
7:53 AM 68.0 °F - 62.1 °F 81% 30.15 in 10.0 mi SW 3.5 mph - N/A   Clear
8:53 AM 73.0 °F - 63.0 °F 71% 30.15 in 10.0 mi South 4.6 mph - N/A   Clear
9:53 AM 77.0 °F - 64.0 °F 64% 30.13 in 10.0 mi Variable 5.8 mph - N/A   Partly Cloudy
10:53 AM 81.0 °F 82.7 °F 64.9 °F 58% 30.12 in 10.0 mi South 8.1 mph - N/A   Partly Cloudy
11:53 AM 82.9 °F 85.0 °F 66.0 °F 56% 30.12 in 10.0 mi South 12.7 mph - N/A   Scattered Clouds
12:53 PM 82.9 °F 84.6 °F 64.9 °F 54% 30.10 in 10.0 mi South 15.0 mph - N/A   Scattered Clouds
1:53 PM 82.9 °F 85.0 °F 66.0 °F 56% 30.09 in 10.0 mi South 12.7 mph 20.7 mph N/A   Partly Cloudy
2:53 PM 82.0 °F 83.8 °F 64.9 °F 56% 30.09 in 10.0 mi South 17.3 mph 25.3 mph N/A   Partly Cloudy
3:53 PM 82.0 °F 84.1 °F 66.0 °F 58% 30.08 in 10.0 mi South 11.5 mph - N/A   Partly Cloudy
4:53 PM 80.1 °F 81.9 °F 64.9 °F 60% 30.07 in 10.0 mi South 15.0 mph 21.9 mph N/A   Partly Cloudy
5:53 PM 79.0 °F - 64.0 °F 60% 30.06 in 10.0 mi South 15.0 mph - N/A   Scattered Clouds
6:53 PM 75.0 °F - 62.1 °F 64% 30.06 in 10.0 mi South 12.7 mph - N/A   Partly Cloudy
7:53 PM 71.1 °F - 60.1 °F 68% 30.08 in 10.0 mi South 8.1 mph - N/A   Partly Cloudy
8:53 PM 69.8 °F - 59.0 °F 68% 30.10 in 10.0 mi South 6.9 mph - N/A   Partly Cloudy
9:53 PM 66.9 °F - 57.9 °F 73% 30.10 in 10.0 mi South 5.8 mph - N/A   Partly Cloudy
10:53 PM 66.0 °F - 57.9 °F 75% 30.11 in 10.0 mi SSW 6.9 mph - N/A   Partly Cloudy
11:53 PM 64.9 °F - 57.0 °F 75% 30.11 in 10.0 mi South 6.9 mph - N/A   Partly Cloudy